JAL220 RCTP-RJTT

Flight info

Callsign JAL220
Flight time 2h 24m
Altitude 39000
Route MOLKA1A MOLKA M750 BILLY Y21 AKSEL AKSELN
Aircraft B748/H-SDE3FGHIM1M2RWXY/LB1

Departure

Time 2026-05-07 15:56
Airport Taiwan Taoyuan International Airport (RCTP)

Arrival

Time 2026-05-07 18:21
Airport Tokyo Haneda International Airport (RJTT)
Time Latitude Longitude Altitude Speed Heading
2026-05-07 15:37 25.07782 121.23671 111 ft 0 kts 319°
2026-05-07 15:45 25.07765 121.23688 106 ft 4 kts 319°
2026-05-07 15:45 25.07746 121.23705 106 ft 4 kts 319°
2026-05-07 15:45 25.07727 121.23723 106 ft 4 kts 319°
2026-05-07 15:45 25.07709 121.23742 106 ft 4 kts 289°
2026-05-07 15:46 25.07717 121.23784 106 ft 0 kts 230°
2026-05-07 15:48 25.07714 121.23780 106 ft 1 kts 230°
2026-05-07 15:48 25.07703 121.23766 106 ft 4 kts 230°
2026-05-07 15:48 25.07683 121.23739 108 ft 5 kts 230°
2026-05-07 15:49 25.07654 121.23702 108 ft 7 kts 229°
2026-05-07 15:49 25.07617 121.23655 108 ft 9 kts 229°
2026-05-07 15:49 25.07572 121.23597 107 ft 11 kts 229°
2026-05-07 15:49 25.07519 121.23530 108 ft 12 kts 229°
2026-05-07 15:50 25.07460 121.23454 108 ft 14 kts 229°
2026-05-07 15:50 25.07394 121.23369 107 ft 15 kts 229°
2026-05-07 15:50 25.07322 121.23277 108 ft 17 kts 229°
2026-05-07 15:50 25.07240 121.23190 107 ft 14 kts 200°
2026-05-07 15:51 25.07166 121.23219 107 ft 12 kts 141°
2026-05-07 15:51 25.07099 121.23268 108 ft 10 kts 167°
2026-05-07 15:51 25.07041 121.23247 108 ft 9 kts 220°
2026-05-07 15:51 25.06998 121.23193 107 ft 10 kts 229°
2026-05-07 15:52 25.06948 121.23131 107 ft 12 kts 229°
2026-05-07 15:52 25.06891 121.23060 107 ft 13 kts 229°
2026-05-07 15:52 25.06829 121.22980 107 ft 14 kts 230°
2026-05-07 15:52 25.06761 121.22892 107 ft 16 kts 229°
2026-05-07 15:53 25.06686 121.22798 106 ft 17 kts 228°
2026-05-07 15:53 25.06606 121.22697 107 ft 18 kts 229°
2026-05-07 15:53 25.06521 121.22588 106 ft 19 kts 229°
2026-05-07 15:53 25.06431 121.22474 107 ft 20 kts 229°
2026-05-07 15:54 25.06337 121.22355 107 ft 21 kts 229°
2026-05-07 15:54 25.06243 121.22254 106 ft 11 kts 198°
2026-05-07 15:54 25.06176 121.22278 105 ft 11 kts 142°
2026-05-07 15:54 25.06111 121.22341 106 ft 9 kts 133°
2026-05-07 15:55 25.06104 121.22376 106 ft 2 kts 77°
2026-05-07 15:55 25.06112 121.22391 106 ft 1 kts 58°
2026-05-07 15:55 25.06117 121.22397 106 ft 0 kts 49°
2026-05-07 15:56 25.06250 121.22567 105 ft 79 kts 49°
2026-05-07 15:56 25.06837 121.23312 104 ft 174 kts 49°
2026-05-07 15:56 25.07748 121.24513 641 ft 219 kts 51°
2026-05-07 15:56 25.08779 121.25863 1686 ft 237 kts 50°
2026-05-07 15:57 25.09875 121.27272 2432 ft 250 kts 50°
2026-05-07 15:57 25.11033 121.28771 3122 ft 269 kts 50°
2026-05-07 15:57 25.12344 121.30325 3849 ft 275 kts 46°
2026-05-07 15:57 25.13667 121.31857 4562 ft 283 kts 46°
2026-05-07 15:58 25.15041 121.33430 5268 ft 287 kts 46°
2026-05-07 15:58 25.16460 121.35057 6021 ft 292 kts 46°
2026-05-07 15:58 25.17862 121.36672 6735 ft 298 kts 46°
2026-05-07 15:58 25.19300 121.38329 7426 ft 300 kts 46°
2026-05-07 15:59 25.20754 121.40003 8143 ft 304 kts 46°
2026-05-07 15:59 25.22222 121.41694 8873 ft 307 kts 45°
2026-05-07 15:59 25.23705 121.43404 9581 ft 311 kts 45°
2026-05-07 15:59 25.25216 121.45145 9931 ft 316 kts 45°
2026-05-07 16:00 25.26733 121.46895 9960 ft 314 kts 45°
2026-05-07 16:00 25.28245 121.48714 10131 ft 330 kts 53°
2026-05-07 16:00 25.29289 121.51038 10641 ft 349 kts 76°
2026-05-07 16:00 25.29707 121.53753 11186 ft 369 kts 78°
2026-05-07 16:01 25.30374 121.56569 11726 ft 388 kts 79°
2026-05-07 16:01 25.30683 121.59599 12272 ft 407 kts 86°
2026-05-07 16:01 25.30849 121.62786 12817 ft 425 kts 86°
2026-05-07 16:01 25.31168 121.66095 13359 ft 442 kts 80°
2026-05-07 16:02 25.31831 121.69475 13888 ft 457 kts 75°
2026-05-07 16:02 25.32672 121.72928 14359 ft 470 kts 74°
2026-05-07 16:02 25.33461 121.76448 14849 ft 474 kts 77°
2026-05-07 16:02 25.34086 121.80047 15327 ft 478 kts 79°
2026-05-07 16:03 25.34719 121.83672 15819 ft 482 kts 78°
2026-05-07 16:03 25.35450 121.87291 16299 ft 484 kts 77°
2026-05-07 16:03 25.36201 121.90931 16804 ft 488 kts 77°
2026-05-07 16:03 25.36905 121.94617 17301 ft 492 kts 78°
2026-05-07 16:04 25.37592 121.98323 17802 ft 494 kts 78°
2026-05-07 16:04 25.38314 122.02066 18308 ft 498 kts 77°
2026-05-07 16:04 25.39051 122.05813 18756 ft 502 kts 77°
2026-05-07 16:04 25.39783 122.09601 19203 ft 506 kts 78°
2026-05-07 16:05 25.40510 122.13431 19658 ft 510 kts 78°
2026-05-07 16:05 25.41244 122.17286 20130 ft 515 kts 78°
2026-05-07 16:05 25.42056 122.21154 20587 ft 517 kts 72°
2026-05-07 16:05 25.43267 122.24916 21078 ft 522 kts 69°
2026-05-07 16:06 25.44568 122.28674 21570 ft 525 kts 68°
2026-05-07 16:06 25.45877 122.32463 22066 ft 529 kts 69°
2026-05-07 16:06 25.47147 122.36296 22563 ft 533 kts 69°
2026-05-07 16:06 25.48422 122.40172 23069 ft 537 kts 69°
2026-05-07 16:07 25.49713 122.44006 23576 ft 540 kts 69°
2026-05-07 16:07 25.51039 122.47918 24007 ft 544 kts 69°
2026-05-07 16:07 25.52371 122.51900 24456 ft 547 kts 69°
2026-05-07 16:07 25.53665 122.55805 24903 ft 549 kts 69°
2026-05-07 16:08 25.54990 122.59780 25336 ft 552 kts 69°
2026-05-07 16:08 25.56328 122.63775 25804 ft 552 kts 69°
2026-05-07 16:08 25.57661 122.67766 26265 ft 552 kts 69°
2026-05-07 16:08 25.58979 122.71741 26736 ft 552 kts 69°
2026-05-07 16:09 25.60304 122.75735 27207 ft 553 kts 69°
2026-05-07 16:09 25.61639 122.79746 27694 ft 554 kts 69°
2026-05-07 16:09 25.62972 122.83761 28187 ft 556 kts 69°
2026-05-07 16:09 25.64302 122.87777 28689 ft 557 kts 69°
2026-05-07 16:10 25.65657 122.91816 29199 ft 558 kts 69°
2026-05-07 16:10 25.67030 122.95837 29725 ft 559 kts 69°
2026-05-07 16:10 25.68402 122.99882 30229 ft 560 kts 69°
2026-05-07 16:10 25.69754 123.03927 30675 ft 561 kts 69°
2026-05-07 16:11 25.71112 123.07990 31136 ft 562 kts 69°
2026-05-07 16:11 25.72020 123.10684 31449 ft 562 kts 68°
2026-05-07 16:11 25.73392 123.14751 31920 ft 563 kts 68°
2026-05-07 16:11 25.74760 123.18829 32397 ft 563 kts 68°
2026-05-07 16:12 25.76113 123.22885 32878 ft 563 kts 68°
2026-05-07 16:12 25.77932 123.28325 33540 ft 561 kts 68°
2026-05-07 16:12 25.78832 123.31011 33885 ft 560 kts 68°
2026-05-07 16:12 25.80182 123.35053 34333 ft 558 kts 67°
2026-05-07 16:13 25.81525 123.39084 34785 ft 556 kts 67°
2026-05-07 16:13 25.82862 123.43098 35237 ft 555 kts 66°
2026-05-07 16:13 25.84203 123.47126 35715 ft 554 kts 66°
2026-05-07 16:13 25.85579 123.51105 36182 ft 550 kts 60°
2026-05-07 16:14 25.87415 123.54774 36699 ft 539 kts 50°
2026-05-07 16:14 25.89722 123.58001 37232 ft 528 kts 40°
2026-05-07 16:14 25.92398 123.60711 37773 ft 515 kts 30°
2026-05-07 16:14 25.95352 123.62870 38329 ft 502 kts 21°
2026-05-07 16:15 25.98461 123.64561 38811 ft 495 kts 19°
2026-05-07 16:15 26.01583 123.66201 38956 ft 498 kts 19°
2026-05-07 16:15 26.04733 123.67841 38954 ft 505 kts 18°
2026-05-07 16:16 26.11103 123.71176 38960 ft 505 kts 19°
2026-05-07 16:16 26.17457 123.74505 38957 ft 505 kts 19°
2026-05-07 16:17 26.23822 123.77843 38947 ft 505 kts 19°
2026-05-07 16:17 26.30212 123.81199 38960 ft 509 kts 19°
2026-05-07 16:18 26.36605 123.84562 38955 ft 508 kts 19°
2026-05-07 16:18 26.43000 123.87928 38954 ft 508 kts 19°
2026-05-07 16:19 26.49359 123.91281 38969 ft 509 kts 18°
2026-05-07 16:19 26.55805 123.94683 38970 ft 509 kts 18°
2026-05-07 16:20 26.62203 123.98088 38966 ft 511 kts 22°
2026-05-07 16:20 26.67940 124.02894 38991 ft 529 kts 41°
2026-05-07 16:21 26.72753 124.09200 38968 ft 534 kts 44°
2026-05-07 16:21 26.77500 124.15586 38965 ft 534 kts 44°
2026-05-07 16:22 26.82270 124.21968 38967 ft 534 kts 44°
2026-05-07 16:22 26.87016 124.28357 38969 ft 533 kts 44°
2026-05-07 16:23 26.91776 124.34754 38974 ft 535 kts 44°
2026-05-07 16:23 26.96527 124.41162 38975 ft 535 kts 44°
2026-05-07 16:24 27.01283 124.47574 38975 ft 535 kts 44°
2026-05-07 16:24 27.06003 124.53949 38998 ft 534 kts 44°
2026-05-07 16:25 27.10761 124.60381 38981 ft 536 kts 44°
2026-05-07 16:25 27.15518 124.66826 38981 ft 536 kts 44°
2026-05-07 16:26 27.20267 124.73265 38984 ft 536 kts 44°
2026-05-07 16:26 27.25008 124.79707 38969 ft 534 kts 44°
2026-05-07 16:27 27.29739 124.86140 38970 ft 534 kts 44°
2026-05-07 16:27 27.34466 124.92580 38971 ft 534 kts 44°
2026-05-07 16:28 27.39189 124.99024 38974 ft 534 kts 44°
2026-05-07 16:28 27.43940 125.05450 38988 ft 535 kts 43°
2026-05-07 16:29 27.48715 125.11870 38985 ft 535 kts 44°
2026-05-07 16:29 27.53470 125.18315 38988 ft 535 kts 44°
2026-05-07 16:30 27.58235 125.24751 38987 ft 535 kts 44°
2026-05-07 16:30 27.62981 125.31196 38989 ft 534 kts 44°
2026-05-07 16:31 27.67728 125.37631 38993 ft 534 kts 44°
2026-05-07 16:31 27.72467 125.44080 38994 ft 534 kts 44°
2026-05-07 16:32 27.77212 125.50538 39016 ft 534 kts 43°
2026-05-07 16:32 27.81947 125.56996 38987 ft 534 kts 43°
2026-05-07 16:33 27.86680 125.63459 38987 ft 534 kts 43°
2026-05-07 16:33 27.91412 125.69931 38988 ft 534 kts 43°
2026-05-07 16:34 27.96152 125.76421 38992 ft 539 kts 43°
2026-05-07 16:34 28.00908 125.82952 38995 ft 538 kts 44°
2026-05-07 16:35 28.05664 125.89485 38994 ft 537 kts 44°
2026-05-07 16:35 28.10412 125.96020 38997 ft 538 kts 44°
2026-05-07 16:36 28.15161 126.02560 38999 ft 546 kts 44°
2026-05-07 16:36 28.20006 126.09257 38998 ft 546 kts 44°
2026-05-07 16:37 28.24824 126.15913 38998 ft 546 kts 44°
2026-05-07 16:37 28.29604 126.22534 38984 ft 546 kts 44°
2026-05-07 16:38 28.34413 126.29205 38981 ft 545 kts 45°
2026-05-07 16:38 28.39215 126.35874 38990 ft 545 kts 45°
2026-05-07 16:39 28.44006 126.42542 38986 ft 545 kts 45°
2026-05-07 16:39 28.48805 126.49228 38985 ft 545 kts 45°
2026-05-07 16:40 28.53592 126.55912 38984 ft 545 kts 45°
2026-05-07 16:40 28.58367 126.62586 38984 ft 545 kts 45°
2026-05-07 16:41 28.63153 126.69286 38991 ft 547 kts 45°
2026-05-07 16:41 28.67917 126.75970 38987 ft 547 kts 45°
2026-05-07 16:42 28.72698 126.82686 38989 ft 546 kts 45°
2026-05-07 16:42 28.77476 126.89408 39005 ft 546 kts 45°
2026-05-07 16:43 28.82260 126.96150 38998 ft 547 kts 45°
2026-05-07 16:43 28.87038 127.02895 38992 ft 546 kts 45°
2026-05-07 16:44 28.91813 127.09645 38994 ft 546 kts 45°
2026-05-07 16:44 28.96593 127.16413 38997 ft 549 kts 45°
2026-05-07 16:45 29.01385 127.23214 38998 ft 549 kts 45°
2026-05-07 16:45 29.06168 127.30008 38990 ft 548 kts 45°
2026-05-07 16:46 29.10943 127.36803 38996 ft 551 kts 45°
2026-05-07 16:46 29.15734 127.43634 38994 ft 550 kts 45°
2026-05-07 16:47 29.20515 127.50460 38994 ft 550 kts 45°
2026-05-07 16:47 29.25291 127.57291 39011 ft 550 kts 46°
2026-05-07 16:48 29.30089 127.64163 38987 ft 552 kts 46°
2026-05-07 16:48 29.34851 127.70999 38989 ft 552 kts 46°
2026-05-07 16:49 29.39641 127.77882 38998 ft 552 kts 46°
2026-05-07 16:49 29.44441 127.84792 38994 ft 555 kts 46°
2026-05-07 16:50 29.49244 127.91722 38991 ft 555 kts 46°
2026-05-07 16:50 29.54041 127.98651 38985 ft 554 kts 46°
2026-05-07 16:51 29.58845 128.05591 38992 ft 558 kts 46°
2026-05-07 16:51 29.63661 128.12570 38991 ft 557 kts 46°
2026-05-07 16:52 29.68471 128.19544 38984 ft 557 kts 46°
2026-05-07 16:52 29.73278 128.26529 38986 ft 559 kts 46°
2026-05-07 16:53 29.78096 128.33542 38987 ft 558 kts 46°
2026-05-07 16:53 29.82905 128.40553 38985 ft 558 kts 46°
2026-05-07 16:54 29.87710 128.47571 38994 ft 560 kts 46°
2026-05-07 16:54 29.92531 128.54625 38984 ft 560 kts 46°
2026-05-07 16:55 29.97342 128.61676 38987 ft 560 kts 46°
2026-05-07 16:55 30.02152 128.68739 38974 ft 559 kts 46°
2026-05-07 16:56 30.06950 128.75796 38974 ft 559 kts 46°
2026-05-07 16:56 30.14107 128.86346 38974 ft 559 kts 46°
2026-05-07 16:57 30.18901 128.93426 38987 ft 560 kts 46°
2026-05-07 16:57 30.23696 129.00524 38986 ft 560 kts 46°
2026-05-07 16:58 30.28485 129.07624 38986 ft 560 kts 46°
2026-05-07 16:58 30.33277 129.14740 38989 ft 562 kts 47°
2026-05-07 16:59 30.38083 129.21894 38987 ft 562 kts 47°
2026-05-07 16:59 30.42878 129.29039 38987 ft 562 kts 47°
2026-05-07 17:00 30.47674 129.36200 38983 ft 564 kts 47°
2026-05-07 17:00 30.51666 129.42174 38984 ft 563 kts 47°
2026-05-07 17:01 30.56463 129.49359 38984 ft 563 kts 47°
2026-05-07 17:01 30.61257 129.56555 38972 ft 565 kts 47°
2026-05-07 17:02 30.66051 129.63764 38985 ft 564 kts 47°
2026-05-07 17:02 30.70842 129.70982 38983 ft 564 kts 47°
2026-05-07 17:03 30.75627 129.78203 38974 ft 564 kts 47°
2026-05-07 17:03 30.80406 129.85429 38968 ft 563 kts 47°
2026-05-07 17:04 30.85104 129.92740 38996 ft 567 kts 52°
2026-05-07 17:04 30.89254 130.00567 38981 ft 569 kts 55°
2026-05-07 17:05 30.93383 130.08348 38973 ft 568 kts 53°
2026-05-07 17:05 30.97549 130.16171 38971 ft 568 kts 54°
2026-05-07 17:06 31.01684 130.24018 38979 ft 568 kts 54°
2026-05-07 17:06 31.05834 130.31842 38971 ft 567 kts 54°
2026-05-07 17:07 31.09957 130.39687 38968 ft 567 kts 54°
2026-05-07 17:07 31.14097 130.47534 38973 ft 567 kts 54°
2026-05-07 17:08 31.18207 130.55377 38964 ft 566 kts 54°
2026-05-07 17:08 31.22315 130.63206 38963 ft 564 kts 54°
2026-05-07 17:09 31.26404 130.71029 38972 ft 564 kts 55°
2026-05-07 17:09 31.30486 130.78847 38970 ft 563 kts 55°
2026-05-07 17:10 31.34567 130.86685 38967 ft 564 kts 55°
2026-05-07 17:10 31.38640 130.94519 38957 ft 563 kts 55°
2026-05-07 17:11 31.42707 131.02358 38955 ft 563 kts 55°
2026-05-07 17:11 31.46769 131.10206 38955 ft 563 kts 55°
2026-05-07 17:12 31.50820 131.18047 38963 ft 562 kts 55°
2026-05-07 17:12 31.54836 131.25834 38964 ft 562 kts 55°
2026-05-07 17:13 31.58869 131.33672 38957 ft 562 kts 56°
2026-05-07 17:13 31.62896 131.41518 38952 ft 561 kts 56°
2026-05-07 17:14 31.66915 131.49373 38946 ft 561 kts 56°
2026-05-07 17:14 31.70931 131.57233 38930 ft 561 kts 56°
2026-05-07 17:15 31.74926 131.65072 38940 ft 559 kts 56°
2026-05-07 17:15 31.78917 131.72913 38940 ft 559 kts 56°
2026-05-07 17:16 31.82900 131.80761 38924 ft 558 kts 56°
2026-05-07 17:16 31.86880 131.88616 38929 ft 559 kts 57°
2026-05-07 17:17 31.90855 131.96480 38928 ft 559 kts 57°
2026-05-07 17:17 31.94822 132.04341 38924 ft 558 kts 57°
2026-05-07 17:18 31.98787 132.12218 38928 ft 559 kts 57°
2026-05-07 17:18 32.02752 132.20108 38914 ft 559 kts 57°
2026-05-07 17:19 32.06706 132.27996 38934 ft 559 kts 57°
2026-05-07 17:19 32.10658 132.35894 38912 ft 560 kts 57°
2026-05-07 17:20 32.14387 132.43969 38918 ft 560 kts 62°
2026-05-07 17:20 32.17847 132.52191 38916 ft 560 kts 62°
2026-05-07 17:21 32.21348 132.60412 38912 ft 560 kts 62°
2026-05-07 17:21 32.24815 132.68644 38907 ft 560 kts 62°
2026-05-07 17:22 32.28291 132.76872 38919 ft 560 kts 62°
2026-05-07 17:22 32.31754 132.85114 38914 ft 560 kts 62°
2026-05-07 17:23 32.35198 132.93317 38920 ft 560 kts 62°
2026-05-07 17:23 32.38653 133.01571 38918 ft 560 kts 62°
2026-05-07 17:24 32.42122 133.09878 38908 ft 559 kts 62°
2026-05-07 17:24 32.45538 133.18073 38905 ft 559 kts 62°
2026-05-07 17:25 32.48975 133.26340 38906 ft 558 kts 62°
2026-05-07 17:25 32.52397 133.34588 38907 ft 558 kts 62°
2026-05-07 17:26 32.55820 133.42861 38898 ft 558 kts 62°
2026-05-07 17:26 32.59229 133.51116 38914 ft 558 kts 62°
2026-05-07 17:27 32.62643 133.59405 38915 ft 558 kts 62°
2026-05-07 17:27 32.66043 133.67676 38901 ft 557 kts 62°
2026-05-07 17:28 32.69438 133.75955 38913 ft 558 kts 62°
2026-05-07 17:28 32.72805 133.84186 38900 ft 558 kts 62°
2026-05-07 17:29 32.76175 133.92442 38921 ft 555 kts 62°
2026-05-07 17:29 32.79542 134.00711 38913 ft 556 kts 62°
2026-05-07 17:30 32.82732 134.09065 38926 ft 555 kts 70°
2026-05-07 17:30 32.84855 134.17903 38925 ft 556 kts 75°
2026-05-07 17:31 32.87068 134.26710 38904 ft 555 kts 71°
2026-05-07 17:31 32.89272 134.35528 38907 ft 556 kts 73°
2026-05-07 17:32 32.91436 134.44354 38898 ft 555 kts 72°
2026-05-07 17:32 32.93278 134.51684 38911 ft 556 kts 73°
2026-05-07 17:33 32.95778 134.61950 38898 ft 555 kts 72°
2026-05-07 17:33 32.97956 134.70763 38894 ft 555 kts 73°
2026-05-07 17:34 33.00106 134.79602 38902 ft 556 kts 73°
2026-05-07 17:34 33.02268 134.88443 38914 ft 556 kts 73°
2026-05-07 17:35 33.04413 134.97299 38905 ft 556 kts 73°
2026-05-07 17:35 33.06553 135.06132 38903 ft 552 kts 73°
2026-05-07 17:36 33.08674 135.14930 38910 ft 552 kts 73°
2026-05-07 17:36 33.10693 135.23756 38911 ft 552 kts 74°
2026-05-07 17:37 33.12717 135.32598 38911 ft 553 kts 74°
2026-05-07 17:37 33.14646 135.41478 38906 ft 551 kts 74°
2026-05-07 17:38 33.16610 135.50318 38911 ft 551 kts 74°
2026-05-07 17:38 33.18544 135.59164 38916 ft 551 kts 74°
2026-05-07 17:39 33.20476 135.67989 38918 ft 550 kts 74°
2026-05-07 17:39 33.22403 135.76830 38915 ft 550 kts 74°
2026-05-07 17:40 33.24320 135.85669 38901 ft 550 kts 74°
2026-05-07 17:40 33.26232 135.94504 38894 ft 550 kts 74°
2026-05-07 17:41 33.28140 136.03365 38906 ft 551 kts 74°
2026-05-07 17:41 33.30042 136.12222 38910 ft 551 kts 75°
2026-05-07 17:42 33.31938 136.21088 38904 ft 550 kts 75°
2026-05-07 17:42 33.33830 136.29968 38903 ft 551 kts 75°
2026-05-07 17:43 33.35713 136.38840 38909 ft 550 kts 75°
2026-05-07 17:43 33.37585 136.47696 38906 ft 549 kts 75°
2026-05-07 17:44 33.39453 136.56565 38904 ft 549 kts 75°
2026-05-07 17:44 33.41299 136.65360 38904 ft 548 kts 75°
2026-05-07 17:45 33.43149 136.74209 38895 ft 548 kts 75°
2026-05-07 17:45 33.44991 136.83057 38896 ft 548 kts 75°
2026-05-07 17:46 33.46827 136.91906 38896 ft 548 kts 75°
2026-05-07 17:46 33.48658 137.00767 38900 ft 547 kts 75°
2026-05-07 17:47 33.50478 137.09609 38900 ft 547 kts 75°
2026-05-07 17:47 33.52293 137.18457 38900 ft 547 kts 75°
2026-05-07 17:48 33.54099 137.27300 38903 ft 547 kts 75°
2026-05-07 17:48 33.55598 137.34668 38903 ft 547 kts 76°
2026-05-07 17:49 33.57697 137.45021 38822 ft 547 kts 76°
2026-05-07 17:49 33.58596 137.49466 38287 ft 547 kts 76°
2026-05-07 17:49 33.59187 137.52397 37999 ft 546 kts 76°
2026-05-07 17:50 33.60377 137.58310 37398 ft 545 kts 76°
2026-05-07 17:50 33.60984 137.61225 37090 ft 544 kts 72°
2026-05-07 17:50 33.62351 137.65455 36707 ft 544 kts 63°
2026-05-07 17:50 33.64146 137.69440 36303 ft 544 kts 58°
2026-05-07 17:51 33.66150 137.73310 35904 ft 545 kts 56°
2026-05-07 17:51 33.68185 137.77149 35533 ft 547 kts 58°
2026-05-07 17:51 33.70601 137.82474 35013 ft 550 kts 63°
2026-05-07 17:51 33.71750 137.85248 34750 ft 551 kts 63°
2026-05-07 17:52 33.73544 137.89324 34365 ft 552 kts 60°
2026-05-07 17:52 33.75459 137.93319 33978 ft 551 kts 59°
2026-05-07 17:52 33.77338 137.97318 33550 ft 549 kts 61°
2026-05-07 17:52 33.79127 138.01360 33122 ft 545 kts 62°
2026-05-07 17:53 33.80901 138.05366 32695 ft 543 kts 60°
2026-05-07 17:53 33.82723 138.09328 32267 ft 539 kts 60°
2026-05-07 17:53 33.84516 138.13210 31850 ft 536 kts 60°
2026-05-07 17:53 33.86287 138.17142 31440 ft 533 kts 61°
2026-05-07 17:54 33.88056 138.21102 31034 ft 529 kts 60°
2026-05-07 17:54 33.89786 138.24928 30638 ft 525 kts 60°
2026-05-07 17:54 33.91557 138.28821 30238 ft 522 kts 60°
2026-05-07 17:54 33.93252 138.32605 29831 ft 518 kts 61°
2026-05-07 17:55 33.94935 138.36422 29366 ft 515 kts 61°
2026-05-07 17:55 33.96615 138.40215 28911 ft 512 kts 61°
2026-05-07 17:55 33.98298 138.43978 28472 ft 509 kts 60°
2026-05-07 17:55 33.99971 138.47729 28032 ft 506 kts 61°
2026-05-07 17:56 34.01616 138.51449 27633 ft 503 kts 61°
2026-05-07 17:56 34.03260 138.55168 27260 ft 501 kts 61°
2026-05-07 17:56 34.04899 138.58865 26901 ft 499 kts 61°
2026-05-07 17:56 34.06525 138.62534 26528 ft 497 kts 61°
2026-05-07 17:57 34.08153 138.66221 26164 ft 495 kts 61°
2026-05-07 17:57 34.09220 138.68642 25916 ft 492 kts 61°
2026-05-07 17:57 34.11361 138.73499 25464 ft 489 kts 61°
2026-05-07 17:57 34.12955 138.77116 25104 ft 487 kts 61°
2026-05-07 17:58 34.14539 138.80716 24755 ft 485 kts 61°
2026-05-07 17:58 34.16113 138.84298 24417 ft 483 kts 61°
2026-05-07 17:58 34.17685 138.87879 24031 ft 481 kts 61°
2026-05-07 17:58 34.19245 138.91435 23654 ft 478 kts 61°
2026-05-07 17:59 34.20798 138.94980 23244 ft 476 kts 61°
2026-05-07 17:59 34.22339 138.98501 22803 ft 473 kts 61°
2026-05-07 17:59 34.23871 139.02003 22365 ft 470 kts 61°
2026-05-07 17:59 34.25392 139.05485 21934 ft 467 kts 62°
2026-05-07 18:00 34.26901 139.08942 21515 ft 464 kts 62°
2026-05-07 18:00 34.28385 139.12380 21101 ft 460 kts 64°
2026-05-07 18:00 34.29647 139.15922 20691 ft 456 kts 67°
2026-05-07 18:00 34.30849 139.19428 20267 ft 448 kts 67°
2026-05-07 18:01 34.32032 139.22882 19859 ft 440 kts 67°
2026-05-07 18:01 34.33202 139.26260 19462 ft 432 kts 67°
2026-05-07 18:01 34.34356 139.29592 19072 ft 426 kts 67°
2026-05-07 18:01 34.35484 139.32872 18689 ft 419 kts 67°
2026-05-07 18:02 34.37689 139.39291 17912 ft 407 kts 68°
2026-05-07 18:02 34.38771 139.42438 17501 ft 402 kts 68°
2026-05-07 18:02 34.39837 139.45545 17084 ft 398 kts 68°
2026-05-07 18:03 34.40893 139.48631 16688 ft 394 kts 68°
2026-05-07 18:03 34.41939 139.51686 16314 ft 392 kts 68°
2026-05-07 18:03 34.42979 139.54727 15942 ft 390 kts 68°
2026-05-07 18:03 34.44016 139.57760 15561 ft 388 kts 68°
2026-05-07 18:04 34.45042 139.60769 15209 ft 384 kts 69°
2026-05-07 18:04 34.46042 139.63702 14853 ft 380 kts 69°
2026-05-07 18:04 34.47062 139.66696 14505 ft 379 kts 69°
2026-05-07 18:04 34.48064 139.69640 14147 ft 377 kts 68°
2026-05-07 18:05 34.49377 139.72339 13828 ft 378 kts 49°
2026-05-07 18:05 34.51347 139.74393 13484 ft 371 kts 29°
2026-05-07 18:05 34.53624 139.75804 13108 ft 366 kts 21°
2026-05-07 18:05 34.55942 139.77055 12735 ft 363 kts 22°
2026-05-07 18:06 34.58162 139.78507 12368 ft 363 kts 29°
2026-05-07 18:06 34.60261 139.80185 12051 ft 359 kts 31°
2026-05-07 18:06 34.62343 139.81820 11759 ft 354 kts 28°
2026-05-07 18:06 34.64450 139.83331 11507 ft 349 kts 27°
2026-05-07 18:07 34.66526 139.84812 11264 ft 345 kts 27°
2026-05-07 18:07 34.68694 139.85909 11024 ft 332 kts
2026-05-07 18:07 34.70950 139.86319 10789 ft 323 kts 359°
2026-05-07 18:07 34.73167 139.86523 10552 ft 319 kts 358°
2026-05-07 18:08 34.75366 139.86779 10317 ft 317 kts
2026-05-07 18:08 34.77557 139.87119 10080 ft 316 kts
2026-05-07 18:08 34.79725 139.87451 9847 ft 313 kts
2026-05-07 18:08 34.81880 139.87750 9586 ft 311 kts
2026-05-07 18:09 34.84029 139.88043 9322 ft 310 kts
2026-05-07 18:09 34.86165 139.88346 9061 ft 308 kts
2026-05-07 18:09 34.88294 139.88652 8809 ft 306 kts
2026-05-07 18:09 34.90403 139.88952 8553 ft 305 kts
2026-05-07 18:10 34.92508 139.89249 8309 ft 304 kts
2026-05-07 18:10 34.94589 139.89462 8061 ft 295 kts 349°
2026-05-07 18:10 34.96551 139.88972 7829 ft 284 kts 339°
2026-05-07 18:10 34.98450 139.88361 7614 ft 281 kts 338°
2026-05-07 18:11 35.00330 139.87754 7426 ft 279 kts 338°
2026-05-07 18:11 35.01569 139.87363 7299 ft 277 kts 338°
2026-05-07 18:11 35.04066 139.86580 7037 ft 275 kts 338°
2026-05-07 18:11 35.05908 139.85998 6840 ft 274 kts 338°
2026-05-07 18:12 35.07728 139.85425 6658 ft 262 kts 338°
2026-05-07 18:12 35.09437 139.84890 6460 ft 246 kts 338°
2026-05-07 18:12 35.11046 139.84378 6247 ft 242 kts 337°
2026-05-07 18:12 35.12658 139.83862 6044 ft 238 kts 337°
2026-05-07 18:13 35.14281 139.83347 5826 ft 238 kts 337°
2026-05-07 18:13 35.15879 139.82840 5626 ft 237 kts 338°
2026-05-07 18:13 35.17472 139.82336 5420 ft 236 kts 338°
2026-05-07 18:13 35.19037 139.81840 5217 ft 234 kts 337°
2026-05-07 18:14 35.20611 139.81341 5026 ft 234 kts 338°
2026-05-07 18:14 35.22204 139.80835 4823 ft 233 kts 338°
2026-05-07 18:14 35.23754 139.80343 4624 ft 233 kts 338°
2026-05-07 18:14 35.25319 139.79846 4432 ft 232 kts 338°
2026-05-07 18:15 35.26883 139.79349 4262 ft 231 kts 338°
2026-05-07 18:15 35.28435 139.78856 4118 ft 230 kts 338°
2026-05-07 18:15 35.29993 139.78355 3956 ft 232 kts 339°
2026-05-07 18:15 35.31599 139.78153 3804 ft 240 kts
2026-05-07 18:16 35.33165 139.78917 3563 ft 245 kts 28°
2026-05-07 18:16 35.34589 139.80086 3342 ft 246 kts 32°
2026-05-07 18:16 35.35967 139.81241 3092 ft 236 kts 30°
2026-05-07 18:16 35.37347 139.82312 2843 ft 233 kts 28°
2026-05-07 18:17 35.38722 139.83359 2556 ft 231 kts 28°
2026-05-07 18:17 35.40069 139.84398 2281 ft 227 kts 29°
2026-05-07 18:17 35.41447 139.85149 1914 ft 208 kts
2026-05-07 18:17 35.42870 139.85170 1589 ft 205 kts 354°
2026-05-07 18:18 35.44248 139.85092 1335 ft 188 kts 344°
2026-05-07 18:18 35.45405 139.84417 1350 ft 186 kts 323°
2026-05-07 18:18 35.46510 139.83625 1355 ft 183 kts 324°
2026-05-07 18:18 35.47612 139.82840 1344 ft 184 kts 324°
2026-05-07 18:19 35.48685 139.82081 1159 ft 172 kts 325°
2026-05-07 18:19 35.49687 139.81371 929 ft 160 kts 326°
2026-05-07 18:19 35.50626 139.80709 731 ft 156 kts 327°
2026-05-07 18:19 35.51567 139.80045 547 ft 155 kts 327°
2026-05-07 18:20 35.52503 139.79381 352 ft 155 kts 328°
2026-05-07 18:20 35.53457 139.78705 145 ft 157 kts 327°
2026-05-07 18:20 35.54375 139.78055 36 ft 148 kts 328°
2026-05-07 18:20 35.55075 139.77563 35 ft 74 kts 329°
2026-05-07 18:21 35.55336 139.77377 35 ft 34 kts 327°
2026-05-07 18:21 35.55495 139.77183 34 ft 21 kts 303°
2026-05-07 18:21 35.55524 139.77065 33 ft 8 kts 243°
2026-05-07 18:21 35.55490 139.77041 33 ft 4 kts 198°
2026-05-07 18:22 35.55461 139.77039 33 ft 5 kts 174°
2026-05-07 18:22 35.55440 139.77049 33 ft 5 kts 153°
2026-05-07 18:22 35.55382 139.77087 33 ft 8 kts 149°
2026-05-07 18:22 35.55323 139.77129 33 ft 11 kts 149°
2026-05-07 18:23 35.55245 139.77185 33 ft 14 kts 149°
2026-05-07 18:23 35.55149 139.77254 33 ft 17 kts 150°
2026-05-07 18:23 35.55035 139.77332 33 ft 20 kts 150°
2026-05-07 18:23 35.54917 139.77411 33 ft 15 kts 165°
2026-05-07 18:24 35.54878 139.77399 33 ft 2 kts 236°
2026-05-07 18:24 35.54863 139.77371 32 ft 6 kts 236°
2026-05-07 18:24 35.54837 139.77318 33 ft 9 kts 239°
2026-05-07 18:24 35.54801 139.77241 33 ft 12 kts 240°
2026-05-07 18:25 35.54754 139.77139 33 ft 15 kts 243°
2026-05-07 18:25 35.54747 139.77034 33 ft 13 kts 260°
2026-05-07 18:25 35.54730 139.76983 33 ft 6 kts 241°
2026-05-07 18:25 35.54712 139.76945 33 ft 0 kts 239°
2026-05-07 18:26 35.54710 139.76940 33 ft 0 kts 239°